DateTimeUTC,F1_A11,F1_S11,BsB_S11,BsG_S11,BsR_S11,BbsB_S11,BbsG_S11,BbsR_S11,BaB_A11,BaG_A11,BaR_A11,Tu_S11,T_S11,Uu_S11,U_S11,P_S11,T1_A11
2021-07-18T18:00:00Z,00000200,20000000,,,,,,,0000.00,-000.08,-000.20,18.5,25.0,12.1,08.1,0672.6,31.0
2021-07-18T18:01:00Z,00000200,20000000,,,,,,,-000.03,0000.20,-000.07,18.5,25.0,12.1,08.1,0672.6,31.0
2021-07-18T18:02:00Z,00000200,20000000,,,,,,,0000.25,0000.08,0000.37,18.5,25.0,12.2,08.2,0672.6,31.0
2021-07-18T18:03:00Z,00000200,60000000,,,,,,,0001.10,0001.02,0000.38,18.5,25.0,12.4,08.3,0672.6,31.0
2021-07-18T18:04:00Z,00000200,40000000,0006.86,0004.73,0003.13,0001.44,0000.73,0000.39,0001.03,0001.06,0001.11,18.6,24.9,12.6,08.6,0673.5,31.0
2021-07-18T18:05:00Z,00000200,00000000,0006.96,0005.06,0003.07,0000.68,0000.53,0000.85,0001.33,0001.32,0001.19,18.6,24.8,12.5,08.6,0673.5,31.0
2021-07-18T18:06:00Z,00000200,00000000,0006.93,0005.05,0003.19,0000.28,0000.26,0000.59,0001.36,0001.32,0000.91,18.6,24.8,12.5,08.6,0673.6,31.0
2021-07-18T18:07:00Z,00000200,00000000,0007.38,0004.77,0003.11,0001.30,0000.49,0000.88,0001.59,0001.13,0000.74,18.6,24.8,12.5,08.6,0673.6,31.0
2021-07-18T18:08:00Z,00000200,00000000,0006.17,0004.58,0002.97,0001.25,0000.72,0000.42,0001.13,0000.99,0000.92,18.6,24.8,12.4,08.5,0673.6,31.0
2021-07-18T18:09:00Z,00000200,00000000,0006.75,0004.72,0003.06,0000.70,0000.64,0000.64,0001.14,0001.40,0001.10,18.6,24.8,12.4,08.6,0673.6,31.0
2021-07-18T18:10:00Z,00000200,00000000,0006.57,0005.37,0003.15,0001.50,0000.66,0000.44,0001.67,0001.40,0001.14,18.6,24.8,12.5,08.6,0673.6,31.0
2021-07-18T18:11:00Z,00000200,00000000,0006.89,0005.28,0003.22,0001.62,0000.70,0000.90,0001.20,0000.97,0000.93,18.6,24.8,12.6,08.7,0673.6,31.0
2021-07-18T18:12:00Z,00000200,00000000,0007.06,0005.11,0003.25,0000.28,0000.48,0000.53,0001.17,0001.35,0001.04,18.6,24.8,12.6,08.7,0673.6,31.0
2021-07-18T18:13:00Z,00000200,00000000,0007.09,0005.08,0003.52,0001.19,0000.85,0000.85,0001.64,0001.17,0000.91,18.6,24.8,12.5,08.6,0673.6,31.0
2021-07-18T18:14:00Z,00000200,00000000,0007.14,0005.33,0003.44,0000.86,0000.70,0000.40,0001.20,0001.21,0001.04,18.7,24.8,12.5,08.6,0673.6,31.0
2021-07-18T18:15:00Z,00000200,00000000,0007.51,0005.58,0003.51,0000.93,0000.72,0000.46,0001.51,0001.36,0001.15,18.6,24.8,12.6,08.7,0673.6,31.0
2021-07-18T18:16:00Z,00000200,00000000,0006.98,0004.96,0003.26,0000.34,0000.32,0000.55,0001.54,0001.25,0001.04,18.6,24.8,12.8,08.8,0673.6,31.0
2021-07-18T18:17:00Z,00000200,00000000,0008.47,0005.49,0003.32,0000.80,0000.58,0000.77,0001.29,0001.44,0000.94,18.6,24.8,12.8,08.8,0673.6,31.0
2021-07-18T18:18:00Z,00000200,00000000,0008.08,0005.78,0003.77,0001.07,0000.60,0000.79,0001.32,0001.39,0000.84,18.6,24.8,12.9,08.9,0673.6,31.0
2021-07-18T18:19:00Z,00000200,00000000,0007.20,0005.15,0003.27,0000.89,0000.58,0000.65,0001.43,0001.19,0001.09,18.6,24.8,13.0,08.9,0673.6,31.1
2021-07-18T18:20:00Z,00000200,00000000,0008.78,0005.62,0003.82,0001.19,0000.84,0000.45,0001.17,0001.26,0000.97,18.6,24.7,13.0,09.0,0673.7,31.0
2021-07-18T18:21:00Z,00000200,00000000,0008.20,0005.56,0003.65,0001.17,0000.73,0000.76,0001.59,0001.31,0001.25,18.7,24.8,12.7,08.8,0673.6,31.0
2021-07-18T18:22:00Z,00000200,00000000,0008.71,0005.48,0003.19,0000.88,0000.55,0000.48,0001.19,0001.03,0000.87,18.6,24.8,12.8,08.8,0673.7,31.0
2021-07-18T18:23:00Z,00000200,00000000,0007.72,0005.57,0003.71,0000.75,0000.98,0000.72,0001.62,0001.66,0000.89,18.7,24.8,12.8,08.8,0673.7,31.0
2021-07-18T18:24:00Z,00000200,00000000,0008.23,0005.55,0003.80,0001.40,0000.80,0000.56,0001.60,0001.36,0001.36,18.7,24.8,12.8,08.8,0673.7,31.0
2021-07-18T18:25:00Z,00000200,00000000,0007.98,0005.98,0003.62,0001.01,0000.74,0000.28,0001.33,0001.19,0000.81,18.7,24.7,12.9,08.9,0673.7,31.0
2021-07-18T18:26:00Z,00000200,00000000,0007.32,0005.56,0003.71,0000.72,0001.03,0000.64,0001.40,0001.49,0001.28,18.7,24.7,12.7,08.8,0673.7,31.0
2021-07-18T18:27:00Z,00000200,00000000,0007.88,0005.63,0003.83,0001.69,0000.58,0000.51,0001.77,0001.33,0001.12,18.7,24.8,12.9,08.9,0673.7,31.0
2021-07-18T18:28:00Z,00000200,00000000,0008.49,0006.06,0003.89,0001.22,0000.54,0000.56,0001.18,0001.52,0000.99,18.7,24.8,12.9,08.9,0673.7,31.0
2021-07-18T18:29:00Z,00000200,00000000,0007.90,0005.55,0003.57,0000.76,0000.75,0000.72,0001.51,0001.22,0000.83,18.7,24.8,12.8,08.8,0673.7,31.0
2021-07-18T18:30:00Z,00000200,00000000,0007.59,0005.23,0003.65,0001.52,0000.85,0000.64,0001.51,0001.11,0001.22,18.7,24.8,12.6,08.7,0673.7,31.0
2021-07-18T18:31:00Z,00000200,00000000,0007.15,0005.25,0003.65,0000.84,0000.82,0000.62,0001.41,0001.47,0001.00,18.7,24.8,12.7,08.7,0673.7,31.0
2021-07-18T18:32:00Z,00000200,00000000,0007.88,0005.29,0003.40,0001.16,0000.85,0000.75,0001.43,0001.22,0001.31,18.7,24.8,12.7,08.7,0673.7,31.0
2021-07-18T18:33:00Z,00000200,00000000,0007.80,0005.87,0003.71,0000.69,0000.94,0000.65,0001.44,0001.54,0000.88,18.7,24.8,12.7,08.8,0673.6,31.0
2021-07-18T18:34:00Z,00000200,00000000,0008.08,0006.06,0003.84,0000.73,0000.72,0000.45,0001.35,0001.47,0000.86,18.7,24.8,12.8,08.8,0673.6,31.1
2021-07-18T18:35:00Z,00000200,00000000,0007.45,0005.71,0004.14,0000.84,0000.50,0000.89,0001.73,0001.56,0001.60,18.7,24.8,12.8,08.9,0673.6,31.0
2021-07-18T18:36:00Z,00000200,00000000,0007.25,0005.79,0003.65,0000.87,0000.77,0000.75,0001.44,0001.20,0001.06,18.7,24.8,12.7,08.8,0673.7,31.0
2021-07-18T18:37:00Z,00000200,00000000,0008.21,0005.34,0003.73,0001.30,0000.76,0000.68,0001.64,0001.44,0001.01,18.7,24.8,12.6,08.7,0673.7,31.0
2021-07-18T18:38:00Z,00000200,00000000,0008.32,0005.98,0003.89,0000.79,0000.70,0000.62,0001.69,0001.42,0001.18,18.7,24.8,12.7,08.8,0673.7,31.0
2021-07-18T18:39:00Z,00000200,00000000,0007.82,0005.80,0003.47,0001.02,0000.81,0000.15,0001.55,0001.32,0001.15,18.7,24.8,12.8,08.8,0673.7,31.0
2021-07-18T18:40:00Z,00000200,00000000,0007.61,0005.70,0003.55,0000.84,0000.77,0000.77,0001.52,0001.95,0001.12,18.7,24.8,12.7,08.8,0673.7,31.0
2021-07-18T18:41:00Z,00000200,00000000,0008.01,0005.41,0003.72,0001.27,0000.75,0000.77,0001.59,0001.13,0000.95,18.7,24.8,12.7,08.8,0673.7,31.0
2021-07-18T18:42:00Z,00000200,00000000,0007.92,0005.58,0003.59,0000.57,0000.83,0000.70,0001.39,0001.21,0001.17,18.7,24.8,12.8,08.9,0673.7,31.1
2021-07-18T18:43:00Z,00000200,00000000,0007.85,0005.58,0004.26,0001.17,0000.56,0000.59,0001.97,0001.89,0001.58,18.7,24.8,12.9,08.9,0673.7,31.0
2021-07-18T18:44:00Z,00000200,00000000,0007.45,0006.24,0003.73,0001.64,0001.18,0000.89,0001.15,0001.29,0000.83,18.7,24.8,13.0,09.0,0673.7,31.0
2021-07-18T18:45:00Z,00000200,00000000,0008.70,0005.90,0004.15,0001.36,0000.85,0000.69,0001.71,0001.34,0001.35,18.7,24.8,12.8,08.9,0673.7,31.0
2021-07-18T18:46:00Z,00000200,00000000,0007.12,0005.82,0003.83,0001.22,0000.77,0000.70,0001.77,0001.70,0000.85,18.7,24.8,12.6,08.8,0673.7,31.1
2021-07-18T18:47:00Z,00000200,00000000,0009.04,0005.88,0003.98,0001.34,0000.94,0000.54,0001.65,0001.24,0001.11,18.7,24.8,12.7,08.8,0673.8,31.0
2021-07-18T18:48:00Z,00000200,00000000,0008.18,0006.07,0003.51,0000.86,0000.87,0000.81,0001.69,0001.85,0001.32,18.7,24.8,12.8,08.8,0673.8,31.0
2021-07-18T18:49:00Z,00000200,00000000,0008.62,0005.94,0003.77,0001.28,0000.96,0000.55,0001.52,0001.43,0001.25,18.7,24.8,12.8,08.8,0673.7,31.0
2021-07-18T18:50:00Z,00000200,00000000,0008.62,0006.29,0004.16,0000.89,0000.87,0000.54,0001.73,0001.44,0001.28,18.7,24.8,12.7,08.8,0673.8,31.0
2021-07-18T18:51:00Z,00000200,00000000,0008.14,0006.04,0004.13,0001.32,0001.19,0000.47,0001.42,0001.53,0000.86,18.7,24.8,12.7,08.8,0673.7,31.0
2021-07-18T18:52:00Z,00000200,00000000,0007.95,0006.22,0003.84,0000.86,0000.53,0000.80,0001.84,0001.42,0001.34,18.8,24.8,12.7,08.8,0673.7,31.1
2021-07-18T18:53:00Z,00000200,00000000,0007.98,0006.14,0003.74,0000.93,0000.72,0000.60,0001.12,0001.10,0000.84,18.8,24.8,12.7,08.8,0673.7,31.1
2021-07-18T18:54:00Z,00000200,00000000,0008.38,0005.99,0003.60,0001.18,0000.74,0000.64,0001.77,0001.73,0001.39,18.8,24.8,12.7,08.8,0673.8,31.1
2021-07-18T18:55:00Z,00000200,00000000,0007.73,0005.85,0004.16,0001.79,0000.99,0000.78,0001.91,0001.63,0001.18,18.8,24.8,12.8,08.8,0673.8,31.0
2021-07-18T18:56:00Z,00000200,00000000,0008.51,0006.18,0003.81,0001.72,0000.87,0000.75,0001.64,0001.77,0001.21,18.8,24.8,12.8,08.8,0673.8,31.1
2021-07-18T18:57:00Z,00000200,40000000,,,,,,,0000.42,-000.11,0000.17,18.9,24.9,13.0,09.0,0673.6,31.0
2021-07-18T18:58:00Z,00000200,60000000,,,,,,,0000.12,0000.49,0000.13,18.6,24.9,12.9,08.7,0672.8,31.1
2021-07-18T18:59:00Z,00000200,20000000,,,,,,,-000.19,-000.26,-000.10,18.6,25.0,12.9,08.7,0672.8,31.1
